Weather History for Fairmont, MN

Change the Weather History Date:

Monday, February 4, 2013

  Actual Average Record
Temperature  
Mean Temperature 18 °F -  
Max Temperature 26 °F 21 °F 60 °F (2005)
Min Temperature 10 °F 4 °F -20 °F (1979)
Degree Days  
Heating Degree Days 47    
Moisture  
Dew Point 10 °F    
Average Humidity 67    
Maximum Humidity 79    
Minimum Humidity 54    
Precipitation  
Precipitation 0.00 in - - ()
Sea Level Pressure  
Sea Level Pressure 29.93 in    
Wind  
Wind Speed 11 mph (North)    
Max Wind Speed 16 mph    
Max Gust Speed 21 mph    
Visibility 10 miles    
Events      
Averages and records for this station are not official NWS values.
T = Trace of Precipitation, MM = Missing Value Source: NWS Daily Summary

Daily Weather History Graph

Daily Weather History Graph

Search for Another Location

Airport:

Trip Planner

Search our weather history database for the weather conditions in past years. The results will help you decide how hot, cold, wet, or windy it might be!

Date:

Astronomy

Feb. 04, 2013 Rise Set
Actual Time 7:30 AM CST 5:33 PM CST
Civil Twilight 7:00 AM CST 6:03 PM CST
Nautical Twilight 6:26 AM CST 6:37 PM CST
Astronomical Twilight 5:52 AM CST 7:11 PM CST
Moon 2:09 AM CST (2/4) 11:54 AM CST (2/4)
Length of Visible Light 11h 03m
Length of Day
10h 02m
Last Quarter, 37% of the Moon is Illuminated
Feb 4
Last Quarter
Feb 10
New
Feb 17
First Quarter
Feb 25
Full
Mar 4
Last Quarter

Hourly Weather History & Observations

Time (CST) Temp. Windchill Dew Point Humidity Pressure Visibility Wind Dir Wind Speed Gust Speed Precip Events Conditions
12:15 AM 19.4 °F 5.0 °F 12.2 °F 74% 29.87 in 10.0 mi NNE 16.1 mph 20.7 mph N/A   Overcast
12:35 AM 19.4 °F 5.5 °F 12.2 °F 74% 29.87 in 10.0 mi NNE 15.0 mph - N/A   Overcast
12:55 AM 19.4 °F 5.5 °F 12.2 °F 74% 29.88 in 10.0 mi NNE 15.0 mph - N/A   Overcast
1:15 AM 19.4 °F 6.0 °F 10.4 °F 68% 29.88 in 10.0 mi North 13.8 mph - N/A   Overcast
1:35 AM 17.6 °F 3.7 °F 10.4 °F 73% 29.88 in 10.0 mi NNE 13.8 mph - N/A   Overcast
1:55 AM 17.6 °F 4.3 °F 10.4 °F 73% 29.88 in 10.0 mi NNE 12.7 mph - N/A   Overcast
2:15 AM 17.6 °F 3.7 °F 10.4 °F 73% 29.89 in 10.0 mi NNE 13.8 mph - N/A   Overcast
2:35 AM 17.6 °F 5.7 °F 10.4 °F 73% 29.89 in 10.0 mi North 10.4 mph - N/A   Overcast
2:55 AM 17.6 °F 3.7 °F 10.4 °F 73% 29.90 in 10.0 mi North 13.8 mph - N/A   Overcast
3:15 AM 15.8 °F 1.4 °F 8.6 °F 73% 29.90 in 10.0 mi North 13.8 mph - N/A   Overcast
4:55 AM 15.8 °F 0.3 °F 8.6 °F 73% 29.94 in 10.0 mi North 16.1 mph - N/A   Overcast
5:15 AM 15.8 °F 0.3 °F 8.6 °F 73% 29.95 in 10.0 mi North 16.1 mph - N/A   Overcast
5:35 AM 15.8 °F 2.1 °F 6.8 °F 68% 29.96 in 10.0 mi North 12.7 mph - N/A   Overcast
5:55 AM 14.0 °F -0.2 °F 6.8 °F 73% 29.96 in 10.0 mi North 12.7 mph - N/A   Mostly Cloudy
6:15 AM 12.2 °F -1.8 °F 5.0 °F 73% 29.97 in 10.0 mi North 11.5 mph - N/A   Partly Cloudy
6:35 AM 12.2 °F -1.0 °F 5.0 °F 73% 29.97 in 10.0 mi North 10.4 mph - N/A   Clear
6:55 AM 10.4 °F -3.3 °F 3.2 °F 73% 29.98 in 10.0 mi North 10.4 mph - N/A   Clear
7:15 AM 10.4 °F -4.1 °F 3.2 °F 73% 29.99 in 10.0 mi North 11.5 mph - N/A   Clear
7:35 AM 10.4 °F -2.4 °F 3.2 °F 73% 30.00 in 10.0 mi North 9.2 mph - N/A   Clear
7:55 AM 10.4 °F -4.1 °F 3.2 °F 73% 30.00 in 10.0 mi North 11.5 mph - N/A   Clear
8:15 AM 10.4 °F -1.5 °F 3.2 °F 73% 29.99 in 10.0 mi North 8.1 mph - N/A   Clear
8:35 AM 10.4 °F -2.4 °F 5.0 °F 79% 30.00 in 10.0 mi North 9.2 mph - N/A   Clear
8:55 AM 12.2 °F -0.2 °F 5.0 °F 73% 30.01 in 10.0 mi North 9.2 mph - N/A   Clear
9:15 AM 12.2 °F -1.0 °F 6.8 °F 79% 30.02 in 10.0 mi North 10.4 mph - N/A   Clear
9:35 AM 14.0 °F 0.5 °F 6.8 °F 73% 30.03 in 10.0 mi North 11.5 mph - N/A   Clear
9:55 AM 14.0 °F 2.0 °F 6.8 °F 73% 30.03 in 10.0 mi North 9.2 mph - N/A   Clear
10:15 AM 15.8 °F 4.2 °F 6.8 °F 68% 30.04 in 10.0 mi North 9.2 mph - N/A   Clear
10:35 AM 15.8 °F 6.1 °F 6.8 °F 68% 30.04 in 8.0 mi North 6.9 mph - N/A   Partly Cloudy
10:55 AM 17.6 °F 9.3 °F 6.8 °F 63% 30.04 in 9.0 mi North 5.8 mph - N/A   Partly Cloudy
11:15 AM 17.6 °F 8.2 °F 6.8 °F 63% 30.04 in 10.0 mi North 6.9 mph - N/A   Clear
11:35 AM 17.6 °F 9.3 °F 6.8 °F 63% 30.02 in 10.0 mi North 5.8 mph - N/A   Clear
11:55 AM 19.4 °F 14.3 °F 8.6 °F 63% 30.01 in 10.0 mi NE 3.5 mph - N/A   Partly Cloudy
12:15 PM 19.4 °F 14.3 °F 8.6 °F 63% 30.00 in 10.0 mi NNE 3.5 mph - N/A   Clear
12:35 PM 21.2 °F - 8.6 °F 58% 30.00 in 10.0 mi Calm Calm - N/A   Clear
12:55 PM 21.2 °F 13.6 °F 8.6 °F 58% 29.99 in 10.0 mi NNW 5.8 mph - N/A   Clear
1:15 PM 21.2 °F 12.6 °F 8.6 °F 58% 30.00 in 10.0 mi North 6.9 mph - N/A   Clear
1:35 PM 21.2 °F 11.7 °F 8.6 °F 58% 30.00 in 10.0 mi NW 8.1 mph - N/A   Clear
1:55 PM 21.2 °F 11.7 °F 8.6 °F 58% 30.00 in 10.0 mi NW 8.1 mph - N/A   Clear
2:15 PM 23.0 °F 17.0 °F 8.6 °F 54% 29.99 in 10.0 mi NNW 4.6 mph - N/A   Clear
2:35 PM 23.0 °F 17.0 °F 8.6 °F 54% 29.98 in 10.0 mi NW 4.6 mph - N/A   Mostly Cloudy
2:55 PM 23.0 °F - 8.6 °F 54% 29.97 in 10.0 mi Calm Calm - N/A   Mostly Cloudy
3:15 PM 21.2 °F - 8.6 °F 58% 29.97 in 10.0 mi Calm Calm - N/A   Mostly Cloudy
3:35 PM 21.2 °F - 8.6 °F 58% 29.97 in 10.0 mi Calm Calm - N/A   Overcast
4:15 PM 21.2 °F - 8.6 °F 58% 29.97 in 10.0 mi Calm Calm - N/A   Overcast
4:35 PM 21.2 °F 14.9 °F 8.6 °F 58% 29.94 in 10.0 mi SSW 4.6 mph - N/A   Overcast
4:55 PM 21.2 °F 13.6 °F 10.4 °F 63% 29.93 in 10.0 mi South 5.8 mph - N/A   Mostly Cloudy
5:15 PM 21.2 °F 12.6 °F 10.4 °F 63% 29.92 in 10.0 mi South 6.9 mph - N/A   Scattered Clouds
5:35 PM 21.2 °F 10.9 °F 10.4 °F 63% 29.92 in 10.0 mi South 9.2 mph - N/A   Partly Cloudy
5:55 PM 21.2 °F 12.6 °F 10.4 °F 63% 29.93 in 10.0 mi South 6.9 mph - N/A   Partly Cloudy
6:15 PM 21.2 °F 11.7 °F 10.4 °F 63% 29.91 in 10.0 mi South 8.1 mph - N/A   Scattered Clouds
6:35 PM 21.2 °F 10.9 °F 10.4 °F 63% 29.88 in 10.0 mi South 9.2 mph - N/A   Partly Cloudy
6:55 PM 21.2 °F 11.7 °F 10.4 °F 63% 29.88 in 10.0 mi SSE 8.1 mph - N/A   Clear
7:15 PM 21.2 °F 12.6 °F 10.4 °F 63% 29.88 in 10.0 mi SSE 6.9 mph - N/A   Clear
7:35 PM 21.2 °F 10.9 °F 12.2 °F 68% 29.87 in 10.0 mi SSE 9.2 mph - N/A   Clear
7:55 PM 21.2 °F 11.7 °F 12.2 °F 68% 29.86 in 10.0 mi SSE 8.1 mph - N/A   Partly Cloudy
8:15 PM 21.2 °F 10.9 °F 12.2 °F 68% 29.86 in 10.0 mi South 9.2 mph - N/A   Mostly Cloudy
8:35 PM 23.0 °F 12.4 °F 12.2 °F 63% 29.86 in 10.0 mi South 10.4 mph - N/A   Overcast
8:55 PM 24.8 °F 14.0 °F 14.0 °F 64% 29.85 in 10.0 mi South 11.5 mph - N/A   Overcast
9:15 PM 24.8 °F 14.0 °F 14.0 °F 64% 29.85 in 10.0 mi South 11.5 mph - N/A   Overcast
9:35 PM 26.6 °F 16.2 °F 15.8 °F 64% 29.85 in 10.0 mi SSW 11.5 mph - N/A   Overcast
9:55 PM 26.6 °F 16.2 °F 15.8 °F 64% 29.85 in 10.0 mi SSW 11.5 mph - N/A   Overcast
10:15 PM 26.6 °F 16.8 °F 15.8 °F 64% 29.84 in 10.0 mi SSW 10.4 mph 17.3 mph N/A   Overcast
10:35 PM 26.6 °F 16.2 °F 15.8 °F 64% 29.83 in 4.0 mi SSW 11.5 mph - N/A   Overcast
10:55 PM 26.6 °F 16.2 °F 17.6 °F 69% 29.82 in 5.0 mi SSW 11.5 mph - N/A   Overcast
11:15 PM 26.6 °F 15.7 °F 17.6 °F 69% 29.81 in 10.0 mi SSW 12.7 mph - N/A   Overcast
11:35 PM 26.6 °F 15.2 °F 17.6 °F 69% 29.80 in 10.0 mi South 13.8 mph - N/A   Overcast
11:55 PM 26.6 °F 15.7 °F 17.6 °F 69% 29.79 in 10.0 mi South 12.7 mph - N/A   Overcast